When you browse on this site, cookies collect data to enhance your experience and personalize the content and advertising you see.
Visit our Privacy Policy to learn more. By continuing to use the site, you agree to this use of cookies and data.

Hourly Weather Larinskiy

Today, 11 July, Saturday

Time Temperature Precipitation Wind Pressure Humidity
00:00 +13°C° 0 mm 3 mps 746 mmHg 84%
01:00 +13°C° 0 mm 3 mps 746 mmHg 84%
02:00 +13°C° 0 mm 2 mps 746 mmHg 83%
03:00 +13°C° 0 mm 3 mps 746 mmHg 83%
04:00 +13°C° 0 mm 3 mps 746 mmHg 83%
05:00 +13°C° 0 mm 3 mps 746 mmHg 84%
06:00 +16°C° 0 mm 3 mps 746 mmHg 80%
07:00 +18°C° 0 mm 4 mps 746 mmHg 76%
08:00 +20°C° 0 mm 5 mps 746 mmHg 73%
09:00 +21°C° 0 mm 5 mps 746 mmHg 71%
10:00 +22°C° 0 mm 5 mps 746 mmHg 69%
11:00 +23°C° 0 mm 5 mps 746 mmHg 67%
12:00 +25°C° 0 mm 5 mps 746 mmHg 67%
13:00 +25°C° 0 mm 5 mps 746 mmHg 67%
14:00 +26°C° 0 mm 5 mps 745 mmHg 67%
15:00 +25°C° 0 mm 5 mps 745 mmHg 70%
16:00 +25°C° 0 mm 4 mps 745 mmHg 73%
17:00 +25°C° 0 mm 4 mps 745 mmHg 76%
18:00 +23°C° 0 mm 4 mps 745 mmHg 81%
19:00 +21°C° 0 mm 3 mps 745 mmHg 85%
20:00 +20°C° 0 mm 3 mps 745 mmHg 90%
21:00 +19°C° 0 mm 3 mps 744 mmHg 91%
22:00 +18°C° 0 mm 3 mps 744 mmHg 92%
23:00 +18°C° 0 mm 3 mps 744 mmHg 92%

Tomorrow, 12 July, Sunday

Time Temperature Precipitation Wind Pressure Humidity
00:00 +17°C° 0 mm 3 mps 744 mmHg 93%
01:00 +17°C° 0 mm 3 mps 744 mmHg 93%
02:00 +16°C° 0 mm 3 mps 744 mmHg 93%
03:00 +17°C° 0 mm 3 mps 744 mmHg 92%
04:00 +17°C° 0 mm 3 mps 743 mmHg 91%
05:00 +17°C° 0 mm 2 mps 743 mmHg 90%
06:00 +19°C° 0 mm 2 mps 743 mmHg 85%
07:00 +20°C° 0 mm 3 mps 743 mmHg 80%
08:00 +22°C° 0 mm 3 mps 743 mmHg 76%
09:00 +24°C° 0 mm 3 mps 743 mmHg 73%
10:00 +25°C° 0 mm 3 mps 743 mmHg 70%
11:00 +26°C° 0 mm 3 mps 742 mmHg 67%
12:00 +26°C° 0 mm 3 mps 742 mmHg 66%
13:00 +26°C° 0 mm 4 mps 742 mmHg 66%
14:00 +27°C° 0 mm 4 mps 742 mmHg 65%
15:00 +26°C° 0 mm 3 mps 741 mmHg 67%
16:00 +26°C° 0 mm 3 mps 741 mmHg 69%
17:00 +26°C° 0 mm 2 mps 741 mmHg 71%
18:00 +24°C° 0 mm 2 mps 740 mmHg 75%
19:00 +21°C° 0 mm 2 mps 740 mmHg 79%
20:00 +21°C° 0 mm 1 mps 740 mmHg 83%
21:00 +19°C° 0 mm 2 mps 740 mmHg 84%
22:00 +18°C° 0 mm 2 mps 740 mmHg 85%
23:00 +18°C° 0 mm 2 mps 740 mmHg 86%

Day after tomorrow, 13 July, Monday

Time Temperature Precipitation Wind Pressure Humidity
00:00 +17°C° 0 mm 2 mps 739 mmHg 87%
01:00 +17°C° 0 mm 2 mps 739 mmHg 88%
02:00 +16°C° 0 mm 1 mps 739 mmHg 89%
03:00 +18°C° 0 mm 1 mps 738 mmHg 88%
04:00 +18°C° 0 mm 1 mps 738 mmHg 88%
05:00 +18°C° 0 mm 1 mps 738 mmHg 87%
06:00 +20°C° 0 mm 1 mps 738 mmHg 82%
07:00 +20°C° 0 mm 0 mps 738 mmHg 76%
08:00 +21°C° 0 mm 0 mps 738 mmHg 71%
09:00 +22°C° 0.1 mm 0 mps 738 mmHg 69%
10:00 +25°C° 0.1 mm 1 mps 737 mmHg 66%
11:00 +26°C° 0.1 mm 1 mps 737 mmHg 63%
12:00 +26°C° 0.2 mm 1 mps 737 mmHg 63%
13:00 +26°C° 0.2 mm 1 mps 737 mmHg 62%
14:00 +27°C° 0.2 mm 1 mps 736 mmHg 62%
15:00 +26°C° 0.9 mm 2 mps 736 mmHg 68%
16:00 +25°C° 0.9 mm 2 mps 736 mmHg 75%
17:00 +24°C° 0.9 mm 2 mps 736 mmHg 81%
18:00 +22°C° 1.1 mm 3 mps 736 mmHg 85%
19:00 +20°C° 1.1 mm 4 mps 736 mmHg 89%
20:00 +19°C° 1.1 mm 5 mps 736 mmHg 93%
21:00 +17°C° 2.2 mm 5 mps 735 mmHg 94%
22:00 +17°C° 2.2 mm 5 mps 735 mmHg 96%
23:00 +16°C° 2.2 mm 5 mps 735 mmHg 97%

14 July, Tuesday

Time Temperature Precipitation Wind Pressure Humidity
00:00 +16°C° 1.9 mm 5 mps 735 mmHg 97%
01:00 +16°C° 1.9 mm 5 mps 735 mmHg 97%
02:00 +16°C° 1.9 mm 5 mps 735 mmHg 97%
03:00 +15°C° 2.8 mm 5 mps 735 mmHg 97%
04:00 +15°C° 2.8 mm 5 mps 735 mmHg 97%
05:00 +15°C° 2.8 mm 6 mps 734 mmHg 97%
06:00 +15°C° 1.6 mm 6 mps 735 mmHg 97%
07:00 +15°C° 1.6 mm 6 mps 735 mmHg 97%
08:00 +15°C° 1.6 mm 6 mps 735 mmHg 96%
09:00 +15°C° 0.1 mm 6 mps 735 mmHg 95%
10:00 +15°C° 0.1 mm 6 mps 735 mmHg 94%
11:00 +15°C° 0.1 mm 6 mps 735 mmHg 93%
12:00 +16°C° 0 mm 6 mps 735 mmHg 90%
13:00 +17°C° 0 mm 6 mps 736 mmHg 87%
14:00 +17°C° 0 mm 6 mps 736 mmHg 85%
15:00 +17°C° 0 mm 6 mps 736 mmHg 85%
16:00 +17°C° 0 mm 6 mps 736 mmHg 85%
17:00 +17°C° 0 mm 5 mps 736 mmHg 84%
18:00 +17°C° 0 mm 5 mps 736 mmHg 86%
19:00 +17°C° 0 mm 4 mps 736 mmHg 87%
20:00 +17°C° 0 mm 4 mps 736 mmHg 89%
21:00 +15°C° 0 mm 4 mps 736 mmHg 87%
22:00 +15°C° 0 mm 4 mps 736 mmHg 86%
23:00 +15°C° 0 mm 4 mps 736 mmHg 85%

15 July, Wednesday

Time Temperature Precipitation Wind Pressure Humidity
00:00 +15°C° 0.1 mm 5 mps 736 mmHg 83%
01:00 +15°C° 0.1 mm 5 mps 736 mmHg 82%
02:00 +15°C° 0.1 mm 5 mps 736 mmHg 80%
03:00 +15°C° 0.5 mm 5 mps 736 mmHg 82%
04:00 +14°C° 0.5 mm 5 mps 736 mmHg 84%
05:00 +14°C° 0.5 mm 5 mps 736 mmHg 86%
06:00 +14°C° 0.4 mm 6 mps 736 mmHg 85%
07:00 +15°C° 0.4 mm 6 mps 736 mmHg 83%
08:00 +16°C° 0.4 mm 6 mps 736 mmHg 82%
09:00 +15°C° 0.8 mm 6 mps 736 mmHg 84%
10:00 +15°C° 0.8 mm 5 mps 736 mmHg 85%
11:00 +15°C° 0.8 mm 5 mps 736 mmHg 87%
12:00 +15°C° 1.1 mm 5 mps 736 mmHg 88%
13:00 +15°C° 1.1 mm 5 mps 737 mmHg 88%
14:00 +15°C° 1.1 mm 5 mps 737 mmHg 89%
15:00 +14°C° 0.7 mm 5 mps 737 mmHg 90%
16:00 +13°C° 0.7 mm 5 mps 737 mmHg 91%
17:00 +13°C° 0.7 mm 4 mps 737 mmHg 92%
18:00 +12°C° 0.2 mm 4 mps 738 mmHg 92%
19:00 +12°C° 0.2 mm 4 mps 738 mmHg 91%
20:00 +11°C° 0.2 mm 4 mps 738 mmHg 91%
21:00 +11°C° 0.1 mm 4 mps 738 mmHg 92%
22:00 +11°C° 0.1 mm 4 mps 738 mmHg 92%
23:00 +11°C° 0.1 mm 3 mps 738 mmHg 93%

16 July, Thursday

Time Temperature Precipitation Wind Pressure Humidity
00:00 +11°C° 0.1 mm 4 mps 738 mmHg 92%
01:00 +12°C° 0.1 mm 4 mps 738 mmHg 91%
02:00 +12°C° 0.1 mm 4 mps 738 mmHg 90%
03:00 +12°C° 0 mm 4 mps 737 mmHg 89%
04:00 +12°C° 0 mm 4 mps 737 mmHg 89%
05:00 +12°C° 0 mm 4 mps 737 mmHg 89%
06:00 +12°C° 0 mm 4 mps 737 mmHg 87%
07:00 +13°C° 0 mm 4 mps 737 mmHg 86%
08:00 +14°C° 0 mm 4 mps 737 mmHg 85%
09:00 +17°C° 0.1 mm 4 mps 737 mmHg 79%
10:00 +18°C° 0.1 mm 4 mps 737 mmHg 72%
11:00 +20°C° 0.1 mm 4 mps 737 mmHg 66%
12:00 +20°C° 0.1 mm 4 mps 737 mmHg 67%
13:00 +20°C° 0.1 mm 4 mps 737 mmHg 69%
14:00 +20°C° 0.1 mm 4 mps 737 mmHg 70%
15:00 +20°C° 0.1 mm 3 mps 737 mmHg 72%
16:00 +20°C° 0.1 mm 3 mps 737 mmHg 73%
17:00 +20°C° 0.1 mm 3 mps 736 mmHg 75%
18:00 +19°C° 0 mm 2 mps 736 mmHg 79%
19:00 +17°C° 0 mm 2 mps 736 mmHg 82%
20:00 +16°C° 0 mm 1 mps 737 mmHg 86%
21:00 +15°C° 0 mm 1 mps 736 mmHg 87%
22:00 +14°C° 0 mm 1 mps 736 mmHg 88%
23:00 +13°C° 0 mm 1 mps 736 mmHg 89%
Show more